User: anonymous   Login
Location: Bittelbronn
(48.4454°N, 8.5870°E)
Time: 08:10:40
(UTC+00:00)
Language:

COSMOS 2251 DEB - Orbit

View from above orbital plane
View from above orbital plane
View from above satellite
View from above satellite

Ground track
Ground track

The orbit data is extracted from the following two-line orbital elements,

1 37330U 93036BKW 24280.60944908  .00006800  00000-0  14776-2 0  9994
2 37330  74.0207  38.6949 0060838 352.4730   7.5514 14.57071489800686
Epoch (UTC): 06 October 2024 14:37:36
Eccentricity: 0.0060838
inclination: 74.0207°
perigee height: 659 km
apogee height: 746 km
right ascension of ascending node: 38.6949°
argument of perigee: 352.4730°
revolutions per day: 14.57071489
mean anomaly at epoch: 7.5514°
orbit number at epoch: 80068

The dashed part of the orbit path shows where the satellite is in the earth's shadow,  

DLR